Warroad, MN

10:59 PM CST on February 24, 2017 (GMT -0600)
Warroad International-Carlson

Weather History for KRRT - March, 2013

Change the Weather History Date:

Monday, March 11, 2013

  Actual Average Record
Temperature  
Mean Temperature 10 °F -  
Max Temperature 19 °F 32 °F 55 °F (1981)
Min Temperature 0 °F 6 °F -32 °F (1950)
Degree Days  
Heating Degree Days 56    
Moisture  
Dew Point 5 °F    
Average Humidity 75    
Maximum Humidity 85    
Minimum Humidity 67    
Precipitation  
Precipitation 0.00 in - - ()
Sea Level Pressure  
Sea Level Pressure 29.90 in    
Wind  
Wind Speed 3 mph (NE)    
Max Wind Speed 7 mph    
Max Gust Speed -    
Visibility 10 miles    
Events      
Averages and records for this station are not official NWS values.
T = Trace of Precipitation, MM = Missing Value Source: NWS Daily Summary

Daily Weather History Graph

Daily Weather History Graph

Search for Another Location

Airport or City:

Trip Planner

Search our weather history database for the weather conditions in past years. The results will help you decide how hot, cold, wet, or windy it might be!

Date:

Astronomy

Mar. 11, 2013 Rise Set
Actual Time 7:42 AM CDT 7:20 PM CDT
Civil Twilight 7:11 AM CDT 7:52 PM CDT
Nautical Twilight 6:34 AM CDT 8:29 PM CDT
Astronomical Twilight 5:57 AM CDT 9:06 PM CDT
Moon 7:14 AM CDT (3/11) 7:39 PM CDT (3/11)
Length of Visible Light 12h 41m
Length of Day
11h 38m
Waning Crescent, 0% of the Moon is Illuminated
Mar 11
Waning Crescent
Mar 11
New
Mar 19
First Quarter
Mar 27
Full
Apr 2
Last Quarter

Hourly Weather History & Observations

Time (CDT) Temp. Windchill Dew Point Humidity Pressure Visibility Wind Dir Wind Speed Gust Speed Precip Events Conditions
12:14 AM 12.2 °F 1.7 °F 3.2 °F 67% 30.08 in 10.0 mi NNW 6.9 mph - N/A   Clear
12:33 AM 12.2 °F 2.9 °F 3.2 °F 67% 30.07 in 10.0 mi North 5.8 mph - N/A   Clear
12:54 AM 12.2 °F 2.9 °F 3.2 °F 67% 30.06 in 10.0 mi North 5.8 mph - N/A   Clear
1:14 AM 12.2 °F 4.3 °F 3.2 °F 67% 30.05 in 10.0 mi North 4.6 mph - N/A   Clear
1:33 AM 10.4 °F 2.2 °F 3.2 °F 73% 30.04 in 10.0 mi North 4.6 mph - N/A   Clear
1:54 AM 12.2 °F 4.3 °F 3.2 °F 67% 30.04 in 10.0 mi NNE 4.6 mph - N/A   Clear
2:14 AM 10.4 °F - 1.4 °F 67% 30.03 in 10.0 mi Calm Calm - N/A   Clear
2:33 AM 6.8 °F - -0.4 °F 72% 30.02 in 10.0 mi Calm Calm - N/A   Clear
2:54 AM 6.8 °F - -0.4 °F 72% 30.03 in 10.0 mi Calm Calm - N/A   Clear
3:13 AM 6.8 °F - -0.4 °F 72% 30.02 in 10.0 mi Calm Calm - N/A   Clear
3:34 AM 5.0 °F - -0.4 °F 78% 30.01 in 10.0 mi Calm Calm - N/A   Clear
3:54 AM 6.8 °F - -0.4 °F 72% 30.00 in 10.0 mi Calm Calm - N/A   Clear
4:14 AM 5.0 °F - -0.4 °F 78% 29.99 in 10.0 mi Calm Calm - N/A   Clear
4:34 AM 3.2 °F - -2.2 °F 78% 29.98 in 10.0 mi Calm Calm - N/A   Clear
4:54 AM 3.2 °F - -2.2 °F 78% 29.97 in 10.0 mi Calm Calm - N/A   Clear
5:14 AM 3.2 °F - -2.2 °F 78% 29.97 in 10.0 mi Calm Calm - N/A   Clear
5:34 AM 3.2 °F -4.2 °F -2.2 °F 78% 29.96 in 10.0 mi NE 3.5 mph - N/A   Clear
5:54 AM 1.4 °F - -2.2 °F 85% 29.95 in 10.0 mi Calm Calm - N/A   Clear
6:14 AM 3.2 °F - -2.2 °F 78% 29.95 in 10.0 mi Calm Calm - N/A   Clear
6:34 AM 1.4 °F - -4.0 °F 78% 29.95 in 10.0 mi Calm Calm - N/A   Clear
6:54 AM -0.4 °F - -5.8 °F 78% 29.94 in 10.0 mi Calm Calm - N/A   Clear
7:14 AM -0.4 °F - -5.8 °F 78% 29.94 in 10.0 mi Calm Calm - N/A   Clear
7:34 AM 1.4 °F - -2.2 °F 85% 29.94 in 10.0 mi Calm Calm - N/A   Clear
7:53 AM 1.4 °F - -2.2 °F 85% 29.94 in 10.0 mi Calm Calm - N/A   Scattered Clouds
8:14 AM 3.2 °F -4.2 °F -2.2 °F 78% 29.94 in 10.0 mi NE 3.5 mph - N/A   Clear
8:33 AM 5.0 °F - -0.4 °F 78% 29.94 in 10.0 mi Calm Calm - N/A   Clear
8:54 AM 6.8 °F -0.1 °F 1.4 °F 79% 29.93 in 10.0 mi NE 3.5 mph - N/A   Clear
9:14 AM 8.6 °F - 1.4 °F 73% 29.93 in 10.0 mi Calm Calm - N/A   Clear
9:33 AM 8.6 °F 0.1 °F 1.4 °F 73% 29.92 in 10.0 mi ENE 4.6 mph - N/A   Clear
9:54 AM 8.6 °F 0.1 °F 1.4 °F 73% 29.92 in 10.0 mi ENE 4.6 mph - N/A   Clear
10:14 AM 8.6 °F -1.3 °F 1.4 °F 73% 29.92 in 10.0 mi ENE 5.8 mph - N/A   Clear
10:34 AM 8.6 °F 2.0 °F 1.4 °F 73% 29.92 in 10.0 mi NE 3.5 mph - N/A   Clear
10:54 AM 8.6 °F 0.1 °F 3.2 °F 79% 29.91 in 10.0 mi NE 4.6 mph - N/A   Clear
11:14 AM 10.4 °F 2.2 °F 3.2 °F 73% 29.91 in 10.0 mi NE 4.6 mph - N/A   Clear
11:33 AM 10.4 °F 0.8 °F 3.2 °F 73% 29.91 in 10.0 mi NE 5.8 mph - N/A   Clear
11:54 AM 10.4 °F 2.2 °F 6.8 °F 85% 29.90 in 10.0 mi NE 4.6 mph - N/A   Clear
12:14 PM 12.2 °F 4.3 °F 6.8 °F 79% 29.90 in 10.0 mi NE 4.6 mph - N/A   Clear
12:33 PM 14.0 °F 8.2 °F 8.6 °F 79% 29.89 in 10.0 mi NE 3.5 mph - N/A   Clear
12:54 PM 15.8 °F 8.6 °F 8.6 °F 73% 29.88 in 10.0 mi NE 4.6 mph - N/A   Clear
1:14 PM 15.8 °F 8.6 °F 10.4 °F 79% 29.87 in 10.0 mi NE 4.6 mph - N/A   Clear
1:34 PM 17.6 °F - 10.4 °F 73% 29.86 in 10.0 mi Calm Calm - N/A   Clear
1:54 PM 17.6 °F - 10.4 °F 73% 29.85 in 10.0 mi Calm Calm - N/A   Clear
2:13 PM 19.4 °F - 12.2 °F 74% 29.85 in 10.0 mi Calm Calm - N/A   Clear
2:34 PM 17.6 °F 10.7 °F 12.2 °F 79% 29.84 in 10.0 mi ENE 4.6 mph - N/A   Clear
2:54 PM 19.4 °F - 12.2 °F 74% 29.83 in 10.0 mi Calm Calm - N/A   Clear
3:13 PM 19.4 °F - 12.2 °F 74% 29.82 in 10.0 mi Calm Calm - N/A   Clear
3:34 PM 19.4 °F 12.8 °F 12.2 °F 74% 29.82 in 10.0 mi East 4.6 mph - N/A   Clear
3:54 PM 19.4 °F 12.8 °F 12.2 °F 74% 29.82 in 10.0 mi East 4.6 mph - N/A   Clear
4:13 PM 19.4 °F 14.3 °F 12.2 °F 74% 29.81 in 10.0 mi ESE 3.5 mph - N/A   Clear
4:34 PM 19.4 °F 12.8 °F 10.4 °F 68% 29.81 in 10.0 mi East 4.6 mph - N/A   Clear
4:53 PM 19.4 °F 11.5 °F 10.4 °F 68% 29.81 in 10.0 mi East 5.8 mph - N/A   Clear
5:14 PM 19.4 °F 12.8 °F 12.2 °F 74% 29.81 in 10.0 mi East 4.6 mph - N/A   Clear
5:34 PM 19.4 °F 12.8 °F 10.4 °F 68% 29.81 in 10.0 mi East 4.6 mph - N/A   Clear
5:53 PM 19.4 °F 10.4 °F 10.4 °F 68% 29.81 in 10.0 mi East 6.9 mph - N/A   Scattered Clouds
6:14 PM 19.4 °F 14.3 °F 12.2 °F 74% 29.82 in 10.0 mi East 3.5 mph - N/A   Scattered Clouds
6:34 PM 19.4 °F - 12.2 °F 74% 29.83 in 10.0 mi Calm Calm - N/A   Clear
6:53 PM 19.4 °F - 10.4 °F 68% 29.83 in 10.0 mi Calm Calm - N/A   Clear
7:14 PM 17.6 °F - 12.2 °F 79% 29.83 in 10.0 mi Calm Calm - N/A   Clear
7:33 PM 17.6 °F - 10.4 °F 73% 29.83 in 10.0 mi Calm Calm - N/A   Scattered Clouds
7:54 PM 15.8 °F - 8.6 °F 73% 29.83 in 10.0 mi Calm Calm - N/A   Overcast
8:14 PM 15.8 °F - 8.6 °F 73% 29.83 in 10.0 mi Calm Calm - N/A   Scattered Clouds
8:34 PM 15.8 °F - 8.6 °F 73% 29.83 in 10.0 mi Calm Calm - N/A   Mostly Cloudy
8:54 PM 14.0 °F - 8.6 °F 79% 29.83 in 10.0 mi Calm Calm - N/A   Mostly Cloudy
9:14 PM 14.0 °F - 8.6 °F 79% 29.83 in 10.0 mi Calm Calm - N/A   Overcast
9:34 PM 10.4 °F - 6.8 °F 85% 29.83 in 10.0 mi Calm Calm - N/A   Mostly Cloudy
9:54 PM 12.2 °F - 8.6 °F 85% 29.83 in 10.0 mi Calm Calm - N/A   Mostly Cloudy
10:13 PM 12.2 °F 4.3 °F 8.6 °F 85% 29.83 in 10.0 mi West 4.6 mph - N/A   Overcast
10:34 PM 17.6 °F 9.3 °F 10.4 °F 73% 29.83 in 10.0 mi West 5.8 mph - N/A   Overcast
10:54 PM 17.6 °F 9.3 °F 10.4 °F 73% 29.83 in 10.0 mi WNW 5.8 mph - N/A   Overcast
11:13 PM 15.8 °F 8.6 °F 8.6 °F 73% 29.83 in 10.0 mi WNW 4.6 mph - N/A   Overcast
11:34 PM 15.8 °F 6.1 °F 8.6 °F 73% 29.83 in 10.0 mi WNW 6.9 mph - N/A   Overcast
11:53 PM 15.8 °F 7.2 °F 8.6 °F 73% 29.84 in 10.0 mi WNW 5.8 mph - N/A   Overcast